Volver al catálogo

STARLINK-35701

ActivoComunicacionesVLEO
NORAD 67118·PAYLOAD·🇺🇸 United States

Lanzado Dec 15, 2025 desde Cape Canaveral Space Force Station

Loading…

Próximos Pases (próximas 24 horas)

TLE

ActualizadoSource: CelesTrak SupGP

Época: Sep 15, 2026, 03:40 UTC

1 67118C 25299S   26258.15326389  .00010774  00000+0  39030-3 0  2584
2 67118  42.9998 178.7866 0001264 269.5776 128.4144 15.27568919    12

Sigue STARLINK-35701 en tiempo real con AllMySat

Download on the App Store